Time,TemperatureF,DewpointF,PressureIn,WindDirection,WindDirectionDegrees,WindSpeedMPH,WindSpeedGustMPH,Humidity,HourlyPrecipIn,Conditions,Clouds,dailyrainin,SolarRadiationWatts/m^2,SoftwareType,DateUTC
2013-09-08 00:00:00,70.2,64.1,29.97,SSW,202,4.6,4.6,81,0.00,CLR,,0.00,0.0,WeatherDisplay:10.37,2013-09-08 04:00:00,
2013-09-08 00:01:00,70.2,64.1,29.97,SSW,202,4.6,4.6,81,0.00,CLR,,0.00,0.0,WeatherDisplay:10.37,2013-09-08 04:01:00,
2013-09-08 00:02:00,70.2,64.1,29.97,SSW,202,3.5,3.5,81,0.00,CLR,,0.00,0.0,WeatherDisplay:10.37,2013-09-08 04:02:00,
2013-09-08 00:07:00,70.0,63.9,29.97,WNW,292,4.6,4.6,81,0.00,CLR,,0.00,0.0,WeatherDisplay:10.37,2013-09-08 04:07:00,
2013-09-08 00:12:00,70.2,64.1,29.97,SW,225,2.3,2.3,81,0.00,CLR,,0.00,0.0,WeatherDisplay:10.37,2013-09-08 04:12:00,
2013-09-08 00:17:00,70.2,64.1,29.97,North,0,2.3,2.3,81,0.00,CLR,,0.00,0.0,WeatherDisplay:10.37,2013-09-08 04:17:00,
2013-09-08 00:22:00,70.2,64.1,30.00,SSW,202,3.5,3.5,81,0.00,CLR,,0.00,0.0,WeatherDisplay:10.37,2013-09-08 04:22:00,
2013-09-08 00:27:00,70.2,64.1,30.00,SSW,202,2.3,0.0,81,0.00,CLR,,0.00,0.0,WeatherDisplay:10.37,2013-09-08 04:27:00,
2013-09-08 00:32:00,70.3,64.2,30.00,SW,225,3.5,3.5,81,0.00,CLR,,0.00,0.0,WeatherDisplay:10.37,2013-09-08 04:32:00,
2013-09-08 00:37:00,70.3,64.2,29.97,SSW,202,2.3,2.3,81,0.00,CLR,,0.00,0.0,WeatherDisplay:10.37,2013-09-08 04:37:00,
2013-09-08 00:42:00,70.3,64.2,29.97,SW,225,2.3,2.4,81,0.00,CLR,,0.00,0.0,WeatherDisplay:10.37,2013-09-08 04:42:00,
2013-09-08 00:47:00,70.2,64.1,29.97,West,270,3.5,3.5,81,0.00,CLR,,0.00,0.0,WeatherDisplay:10.37,2013-09-08 04:47:00,
2013-09-08 00:52:00,70.2,64.1,29.97,SSW,202,2.6,0.0,81,0.00,CLR,,0.00,0.0,WeatherDisplay:10.37,2013-09-08 04:52:00,
2013-09-08 00:57:00,70.2,64.4,29.97,WSW,248,3.5,3.5,82,0.00,CLR,,0.00,0.0,WeatherDisplay:10.37,2013-09-08 04:57:00,
2013-09-08 01:02:00,70.2,64.4,29.97,SSW,202,3.5,3.5,82,0.00,CLR,,0.00,0.0,WeatherDisplay:10.37,2013-09-08 05:02:00,
2013-09-08 01:07:00,70.2,64.4,29.97,SSE,158,3.5,3.5,82,0.00,CLR,,0.00,0.0,WeatherDisplay:10.37,2013-09-08 05:07:00,
2013-09-08 01:12:00,70.2,64.4,29.97,SSW,202,3.5,3.5,82,0.00,CLR,,0.00,0.0,WeatherDisplay:10.37,2013-09-08 05:12:00,
2013-09-08 01:17:00,70.2,64.4,29.97,WSW,248,4.9,4.9,82,0.00,CLR,,0.00,0.0,WeatherDisplay:10.37,2013-09-08 05:17:00,
2013-09-08 01:22:00,70.0,64.2,29.97,SSE,158,3.5,3.5,82,0.00,CLR,,0.00,0.0,WeatherDisplay:10.37,2013-09-08 05:22:00,
2013-09-08 01:27:00,70.0,64.6,29.97,SSW,202,4.6,4.6,83,0.00,CLR,,0.00,0.0,WeatherDisplay:10.37,2013-09-08 05:27:00,
2013-09-08 01:32:00,70.0,64.6,29.97,SSW,202,3.5,3.5,83,0.00,CLR,,0.00,0.0,WeatherDisplay:10.37,2013-09-08 05:32:00,
2013-09-08 01:37:00,70.0,64.6,30.00,WSW,248,3.5,3.5,83,0.00,CLR,,0.00,0.0,WeatherDisplay:10.37,2013-09-08 05:37:00,
2013-09-08 01:42:00,70.0,64.6,30.00,SSW,202,3.5,3.5,83,0.00,CLR,,0.00,0.0,WeatherDisplay:10.37,2013-09-08 05:42:00,
2013-09-08 01:47:00,70.0,64.9,30.00,WSW,248,4.6,4.6,84,0.00,CLR,,0.00,0.0,WeatherDisplay:10.37,2013-09-08 05:47:00,
2013-09-08 01:52:00,69.8,64.7,29.97,SSW,202,4.6,4.6,84,0.00,CLR,,0.00,0.0,WeatherDisplay:10.37,2013-09-08 05:52:00,
2013-09-08 01:57:00,69.8,64.4,29.97,SSW,202,2.3,2.3,83,0.00,CLR,,0.00,0.0,WeatherDisplay:10.37,2013-09-08 05:57:00,
2013-09-08 02:02:00,69.8,64.7,29.97,SSW,202,3.5,3.5,84,0.00,CLR,,0.00,0.0,WeatherDisplay:10.37,2013-09-08 06:02:00,
2013-09-08 02:07:00,69.6,64.9,29.97,SSE,158,3.5,3.5,85,0.00,CLR,,0.00,0.0,WeatherDisplay:10.37,2013-09-08 06:07:00,
2013-09-08 02:12:00,69.6,64.9,29.97,SSW,202,3.5,3.5,85,0.00,CLR,,0.00,0.0,WeatherDisplay:10.37,2013-09-08 06:12:00,
2013-09-08 02:17:00,69.6,64.9,29.97,SSW,202,3.5,3.5,85,0.00,CLR,,0.00,0.0,WeatherDisplay:10.37,2013-09-08 06:17:00,
2013-09-08 02:22:00,69.4,65.1,29.97,SSW,202,4.6,4.6,86,0.00,CLR,,0.00,0.0,WeatherDisplay:10.37,2013-09-08 06:22:00,
2013-09-08 02:27:00,69.4,65.1,29.97,SSW,202,3.5,3.5,86,0.00,CLR,,0.00,0.0,WeatherDisplay:10.37,2013-09-08 06:27:00,
2013-09-08 02:32:00,69.4,65.1,29.97,SSW,202,2.3,2.3,86,0.00,CLR,,0.00,0.0,WeatherDisplay:10.37,2013-09-08 06:32:00,
2013-09-08 02:37:00,69.3,64.9,29.97,WSW,248,4.6,4.6,86,0.00,CLR,,0.00,0.0,WeatherDisplay:10.37,2013-09-08 06:37:00,
2013-09-08 02:43:00,69.3,64.9,29.97,WSW,248,3.6,3.6,86,0.00,CLR,,0.00,0.0,WeatherDisplay:10.37,2013-09-08 06:43:00,
2013-09-08 02:48:00,69.3,65.2,29.97,SSW,202,4.6,4.6,87,0.00,CLR,,0.00,0.0,WeatherDisplay:10.37,2013-09-08 06:48:00,
2013-09-08 02:53:00,69.1,65.0,29.97,SSW,202,4.0,4.0,87,0.00,CLR,,0.00,0.0,WeatherDisplay:10.37,2013-09-08 06:53:00,
2013-09-08 02:58:00,69.1,65.0,29.97,SSW,202,3.5,3.5,87,0.00,CLR,,0.00,0.0,WeatherDisplay:10.37,2013-09-08 06:58:00,
2013-09-08 03:03:00,69.1,65.0,29.97,SSW,202,2.3,2.3,87,0.00,CLR,,0.00,0.0,WeatherDisplay:10.37,2013-09-08 07:03:00,
2013-09-08 03:08:00,69.1,65.0,29.97,SSW,202,3.5,3.5,87,0.00,CLR,,0.00,0.0,WeatherDisplay:10.37,2013-09-08 07:08:00,
2013-09-08 03:13:00,68.9,64.9,29.97,SSW,202,3.5,3.5,87,0.00,CLR,,0.00,0.0,WeatherDisplay:10.37,2013-09-08 07:13:00,
2013-09-08 03:18:00,68.7,64.7,29.97,WSW,248,2.4,2.4,87,0.00,CLR,,0.00,0.0,WeatherDisplay:10.37,2013-09-08 07:18:00,
2013-09-08 03:23:00,68.5,64.5,29.97,SSW,202,1.2,1.2,87,0.00,CLR,,0.00,0.0,WeatherDisplay:10.37,2013-09-08 07:23:00,
2013-09-08 03:28:00,68.2,64.2,29.97,South,180,0.0,0.0,87,0.00,CLR,,0.00,0.0,WeatherDisplay:10.37,2013-09-08 07:28:00,
2013-09-08 03:33:00,68.0,64.0,29.97,SSW,202,0.0,0.0,87,0.00,CLR,,0.00,0.0,WeatherDisplay:10.37,2013-09-08 07:33:00,
2013-09-08 03:38:00,67.8,64.1,29.97,SE,135,0.0,0.0,88,0.00,CLR,,0.00,0.0,WeatherDisplay:10.37,2013-09-08 07:38:00,
2013-09-08 03:43:00,67.5,63.8,29.97,WSW,248,0.0,0.0,88,0.00,CLR,,0.00,0.0,WeatherDisplay:10.37,2013-09-08 07:43:00,
2013-09-08 03:48:00,67.5,63.8,29.97,SSE,158,0.0,0.0,88,0.00,CLR,,0.00,0.0,WeatherDisplay:10.37,2013-09-08 07:48:00,
2013-09-08 03:53:00,67.3,63.9,29.97,WSW,248,0.0,0.0,89,0.00,CLR,,0.00,0.0,WeatherDisplay:10.37,2013-09-08 07:53:00,
2013-09-08 03:58:00,67.1,63.7,29.97,SSE,158,1.2,0.0,89,0.00,CLR,,0.00,0.0,WeatherDisplay:10.37,2013-09-08 07:58:00,
2013-09-08 04:03:00,66.9,63.9,29.97,SSE,158,1.2,1.2,90,0.00,CLR,,0.00,0.0,WeatherDisplay:10.37,2013-09-08 08:03:00,
2013-09-08 04:08:00,66.7,63.7,29.97,SSW,202,1.2,0.0,90,0.00,CLR,,0.00,0.0,WeatherDisplay:10.37,2013-09-08 08:08:00,
2013-09-08 04:13:00,66.7,63.7,29.97,SSW,202,0.0,0.0,90,0.00,CLR,,0.00,0.0,WeatherDisplay:10.37,2013-09-08 08:13:00,
2013-09-08 04:18:00,66.7,63.7,29.97,West,270,0.0,0.0,90,0.00,CLR,,0.00,0.0,WeatherDisplay:10.37,2013-09-08 08:18:00,
2013-09-08 04:23:00,66.4,63.7,29.97,South,180,0.0,0.0,91,0.00,CLR,,0.00,0.0,WeatherDisplay:10.37,2013-09-08 08:23:00,
2013-09-08 04:28:00,66.2,63.2,29.97,SSW,202,0.0,0.0,90,0.00,CLR,,0.00,0.0,WeatherDisplay:10.37,2013-09-08 08:28:00,
2013-09-08 04:33:00,66.2,63.5,29.97,WSW,248,0.0,0.0,91,0.00,CLR,,0.00,0.0,WeatherDisplay:10.37,2013-09-08 08:33:00,
2013-09-08 04:38:00,66.0,63.3,29.97,WSW,248,0.0,0.0,91,0.00,CLR,,0.00,0.0,WeatherDisplay:10.37,2013-09-08 08:38:00,
2013-09-08 04:43:00,65.8,63.1,29.97,WSW,248,0.0,0.0,91,0.00,CLR,,0.00,0.0,WeatherDisplay:10.37,2013-09-08 08:43:00,
2013-09-08 04:48:00,65.5,62.8,29.97,WSW,248,0.0,0.0,91,0.00,CLR,,0.00,0.0,WeatherDisplay:10.37,2013-09-08 08:48:00,
2013-09-08 04:53:00,65.3,62.9,29.97,WSW,248,0.0,0.0,92,0.00,CLR,,0.00,0.0,WeatherDisplay:10.37,2013-09-08 08:53:00,
2013-09-08 04:58:00,65.3,62.9,29.97,WSW,248,0.0,0.0,92,0.00,CLR,,0.00,0.0,WeatherDisplay:10.37,2013-09-08 08:58:00,
2013-09-08 05:03:00,65.3,62.9,29.97,WSW,248,0.0,0.0,92,0.00,CLR,,0.00,0.0,WeatherDisplay:10.37,2013-09-08 09:03:00,
2013-09-08 05:08:00,65.7,63.3,29.97,WNW,292,0.0,0.0,92,0.00,CLR,,0.00,0.0,WeatherDisplay:10.37,2013-09-08 09:08:00,
2013-09-08 05:13:00,65.7,63.3,29.97,SSW,202,0.0,0.0,92,0.00,CLR,,0.00,0.0,WeatherDisplay:10.37,2013-09-08 09:13:00,
2013-09-08 05:18:00,65.8,63.5,29.97,SSE,158,0.0,0.0,92,0.00,CLR,,0.00,0.0,WeatherDisplay:10.37,2013-09-08 09:18:00,
2013-09-08 05:23:00,65.7,63.3,29.97,SSE,158,0.0,0.0,92,0.00,CLR,,0.00,0.0,WeatherDisplay:10.37,2013-09-08 09:23:00,
2013-09-08 05:28:00,65.7,63.3,29.97,SSW,202,0.0,0.0,92,0.00,CLR,,0.00,0.0,WeatherDisplay:10.37,2013-09-08 09:28:00,
2013-09-08 05:33:00,65.7,63.3,29.97,South,180,0.0,0.0,92,0.00,CLR,,0.00,0.0,WeatherDisplay:10.37,2013-09-08 09:33:00,
2013-09-08 05:38:00,65.8,63.8,29.97,SSW,202,0.0,0.0,93,0.00,CLR,,0.00,0.0,WeatherDisplay:10.37,2013-09-08 09:38:00,
2013-09-08 05:43:00,65.7,63.6,29.97,SSW,202,0.0,0.0,93,0.00,CLR,,0.00,0.0,WeatherDisplay:10.37,2013-09-08 09:43:00,
2013-09-08 05:48:00,65.5,63.4,29.97,WSW,248,0.0,0.0,93,0.00,CLR,,0.00,0.0,WeatherDisplay:10.37,2013-09-08 09:48:00,
2013-09-08 05:53:00,65.5,63.4,29.97,SSE,158,0.0,0.0,93,0.00,CLR,,0.00,0.0,WeatherDisplay:10.37,2013-09-08 09:53:00,
2013-09-08 05:58:00,65.3,63.2,29.97,SSW,202,0.0,0.0,93,0.00,CLR,,0.00,0.0,WeatherDisplay:10.37,2013-09-08 09:58:00,
2013-09-08 06:03:00,65.1,63.0,29.97,SSE,158,0.0,0.0,93,0.00,CLR,,0.00,0.0,WeatherDisplay:10.37,2013-09-08 10:03:00,
2013-09-08 06:08:00,65.1,63.0,29.97,SSE,158,0.0,0.0,93,0.00,CLR,,0.00,0.0,WeatherDisplay:10.37,2013-09-08 10:08:00,
2013-09-08 06:13:00,65.1,63.0,29.97,SSW,202,0.0,0.0,93,0.00,CLR,,0.00,0.0,WeatherDisplay:10.37,2013-09-08 10:13:00,
2013-09-08 06:18:00,64.9,63.2,29.97,WNW,292,0.0,0.0,94,0.00,CLR,,0.00,0.0,WeatherDisplay:10.37,2013-09-08 10:18:00,
2013-09-08 06:23:00,64.8,62.7,29.97,WNW,292,0.0,0.0,93,0.00,CLR,,0.00,0.0,WeatherDisplay:10.37,2013-09-08 10:23:00,
2013-09-08 06:28:00,64.6,62.5,29.97,WNW,292,0.0,0.0,93,0.00,CLR,,0.00,0.0,WeatherDisplay:10.37,2013-09-08 10:28:00,
2013-09-08 06:33:00,64.4,62.3,29.97,WNW,292,0.0,0.0,93,0.00,CLR,,0.00,0.0,WeatherDisplay:10.37,2013-09-08 10:33:00,
2013-09-08 06:38:00,64.2,62.5,29.97,WNW,292,0.0,0.0,94,0.00,CLR,,0.00,0.0,WeatherDisplay:10.37,2013-09-08 10:38:00,
2013-09-08 06:43:00,64.2,62.5,29.97,WNW,292,0.0,0.0,94,0.00,CLR,,0.00,0.0,WeatherDisplay:10.37,2013-09-08 10:43:00,
2013-09-08 06:48:00,64.0,62.3,29.97,WNW,292,0.0,0.0,94,0.00,CLR,,0.00,0.0,WeatherDisplay:10.37,2013-09-08 10:48:00,
2013-09-08 06:53:00,64.0,62.3,29.97,WNW,292,0.0,0.0,94,0.00,CLR,,0.00,0.0,WeatherDisplay:10.37,2013-09-08 10:53:00,
2013-09-08 06:58:00,64.0,62.6,29.97,WNW,292,0.0,0.0,95,0.00,CLR,,0.00,0.0,WeatherDisplay:10.37,2013-09-08 10:58:00,
2013-09-08 07:03:00,64.0,62.6,29.97,WNW,292,0.0,0.0,95,0.00,CLR,,0.00,0.0,WeatherDisplay:10.37,2013-09-08 11:03:00,
2013-09-08 07:08:00,64.0,62.6,29.97,WNW,292,0.0,0.0,95,0.00,CLR,,0.00,0.0,WeatherDisplay:10.37,2013-09-08 11:08:00,
2013-09-08 07:13:00,64.0,62.6,29.97,ENE,68,0.0,0.0,95,0.00,CLR,,0.00,0.0,WeatherDisplay:10.37,2013-09-08 11:13:00,
2013-09-08 07:18:00,64.2,62.8,29.97,ENE,68,0.0,0.0,95,0.00,CLR,,0.00,0.0,WeatherDisplay:10.37,2013-09-08 11:18:00,
2013-09-08 07:23:00,64.2,62.8,30.00,ENE,68,0.0,0.0,95,0.00,CLR,,0.00,0.0,WeatherDisplay:10.37,2013-09-08 11:23:00,
2013-09-08 07:28:00,64.4,62.6,30.00,NNE,22,1.2,0.0,94,0.00,CLR,,0.00,0.0,WeatherDisplay:10.37,2013-09-08 11:28:00,
2013-09-08 07:33:00,64.8,63.0,30.00,NNE,22,0.0,0.0,94,0.00,CLR,,0.00,0.0,WeatherDisplay:10.37,2013-09-08 11:33:00,
2013-09-08 07:38:00,64.9,63.2,30.00,NNE,22,0.0,0.0,94,0.00,CLR,,0.00,0.0,WeatherDisplay:10.37,2013-09-08 11:38:00,
2013-09-08 07:43:00,66.0,64.5,30.00,NNE,22,0.0,0.0,95,0.00,CLR,,0.00,0.0,WeatherDisplay:10.37,2013-09-08 11:43:00,
2013-09-08 07:48:00,66.4,64.6,30.00,NNE,22,0.0,0.0,94,0.00,CLR,,0.00,0.0,WeatherDisplay:10.37,2013-09-08 11:48:00,
2013-09-08 07:53:00,67.3,65.5,30.00,NNE,22,0.0,0.0,94,0.00,CLR,,0.00,0.0,WeatherDisplay:10.37,2013-09-08 11:53:00,
2013-09-08 07:58:00,67.8,66.0,30.00,NNE,22,0.0,0.0,94,0.00,CLR,,0.00,0.0,WeatherDisplay:10.37,2013-09-08 11:58:00,
2013-09-08 08:03:00,68.7,66.6,30.00,WNW,292,1.4,0.0,93,0.00,CLR,,0.00,0.0,WeatherDisplay:10.37,2013-09-08 12:03:00,
2013-09-08 08:08:00,69.6,67.2,30.00,NNW,338,2.3,2.3,92,0.00,CLR,,0.00,100.0,WeatherDisplay:10.37,2013-09-08 12:08:00,
2013-09-08 08:13:00,70.5,67.1,30.00,NNW,338,2.3,2.3,89,0.00,CLR,,0.00,100.0,WeatherDisplay:10.37,2013-09-08 12:13:00,
2013-09-08 08:18:00,71.4,67.7,30.00,NNW,338,2.0,0.0,88,0.00,CLR,,0.00,100.0,WeatherDisplay:10.37,2013-09-08 12:18:00,
2013-09-08 08:23:00,72.0,67.5,30.00,NNW,338,2.3,0.0,86,0.00,CLR,,0.00,200.0,WeatherDisplay:10.37,2013-09-08 12:23:00,
2013-09-08 08:28:00,72.5,67.4,30.00,NNW,338,1.6,1.6,84,0.00,CLR,,0.00,200.0,WeatherDisplay:10.37,2013-09-08 12:28:00,
2013-09-08 08:33:00,73.0,67.6,30.00,NNW,338,3.1,3.1,83,0.00,CLR,,0.00,200.0,WeatherDisplay:10.37,2013-09-08 12:33:00,
2013-09-08 08:38:00,73.0,66.5,30.00,NNW,338,3.5,3.5,80,0.00,CLR,,0.00,200.0,WeatherDisplay:10.37,2013-09-08 12:38:00,
2013-09-08 08:43:00,73.8,66.8,30.00,NNW,338,3.5,3.5,79,0.00,CLR,,0.00,300.0,WeatherDisplay:10.37,2013-09-08 12:43:00,
2013-09-08 08:48:00,74.1,66.8,30.00,NNE,22,2.3,2.3,78,0.00,CLR,,0.00,300.0,WeatherDisplay:10.37,2013-09-08 12:48:00,
2013-09-08 08:53:00,74.3,67.0,30.00,NNE,22,5.4,5.4,78,0.00,CLR,,0.00,300.0,WeatherDisplay:10.37,2013-09-08 12:53:00,
2013-09-08 08:58:00,74.1,65.7,30.00,NNW,338,4.6,4.6,75,0.00,CLR,,0.00,300.0,WeatherDisplay:10.37,2013-09-08 12:58:00,
2013-09-08 09:03:00,74.8,66.4,30.00,NNW,338,4.6,4.6,75,0.00,CLR,,0.00,400.0,WeatherDisplay:10.37,2013-09-08 13:03:00,
2013-09-08 09:08:00,75.9,66.6,30.00,NNW,338,4.6,4.6,73,0.00,CLR,,0.00,400.0,WeatherDisplay:10.37,2013-09-08 13:08:00,
2013-09-08 09:13:00,76.8,66.3,30.00,NNW,338,5.8,5.8,70,0.00,CLR,,0.00,400.0,WeatherDisplay:10.37,2013-09-08 13:13:00,
2013-09-08 09:18:00,77.7,66.7,30.00,ESE,112,3.5,3.5,69,0.00,CLR,,0.00,400.0,WeatherDisplay:10.37,2013-09-08 13:18:00,
2013-09-08 09:23:00,78.3,66.4,30.00,ENE,68,3.1,3.1,67,0.00,CLR,,0.00,500.0,WeatherDisplay:10.37,2013-09-08 13:23:00,
2013-09-08 09:28:00,78.3,65.5,30.00,NNW,338,5.8,5.8,65,0.00,CLR,,0.00,500.0,WeatherDisplay:10.37,2013-09-08 13:28:00,
2013-09-08 09:33:00,77.7,65.5,30.00,NNW,338,5.4,5.4,66,0.00,CLR,,0.00,500.0,WeatherDisplay:10.37,2013-09-08 13:33:00,
2013-09-08 09:38:00,79.0,66.6,30.00,North,0,4.3,4.3,66,0.00,CLR,,0.00,600.0,WeatherDisplay:10.37,2013-09-08 13:38:00,
2013-09-08 09:43:00,77.4,65.1,30.00,WNW,292,4.6,4.6,66,0.00,CLR,,0.00,600.0,WeatherDisplay:10.37,2013-09-08 13:43:00,
2013-09-08 09:49:00,76.1,65.2,30.00,North,0,5.8,5.8,69,0.00,CLR,,0.00,500.0,WeatherDisplay:10.37,2013-09-08 13:49:00,
2013-09-08 09:54:00,75.9,65.4,30.00,NNW,338,3.6,3.6,70,0.00,CLR,,0.00,500.0,WeatherDisplay:10.37,2013-09-08 13:54:00,
2013-09-08 09:59:00,76.1,66.0,30.00,NNW,338,3.6,3.6,71,0.00,CLR,,0.00,500.0,WeatherDisplay:10.37,2013-09-08 13:59:00,
2013-09-08 10:04:00,76.1,66.8,30.00,ENE,68,3.5,3.5,73,0.00,CLR,,0.00,500.0,WeatherDisplay:10.37,2013-09-08 14:04:00,
2013-09-08 10:09:00,76.5,67.2,30.00,NNE,22,3.8,0.0,73,0.00,CLR,,0.00,700.0,WeatherDisplay:10.37,2013-09-08 14:09:00,
2013-09-08 10:14:00,76.6,66.9,30.00,NNW,338,3.5,3.5,72,0.00,CLR,,0.00,700.0,WeatherDisplay:10.37,2013-09-08 14:14:00,
2013-09-08 10:19:00,77.0,67.3,30.00,ENE,68,3.5,3.5,72,0.00,CLR,,0.00,700.0,WeatherDisplay:10.37,2013-09-08 14:19:00,
2013-09-08 10:24:00,77.9,67.3,30.03,West,270,4.6,4.6,70,0.00,CLR,,0.00,800.0,WeatherDisplay:10.37,2013-09-08 14:24:00,
2013-09-08 10:29:00,80.4,68.5,30.03,ENE,68,5.8,5.8,67,0.00,CLR,,0.00,1300.0,WeatherDisplay:10.37,2013-09-08 14:29:00,
2013-09-08 10:34:00,81.0,68.1,30.03,NNW,338,5.8,5.8,65,0.00,CLR,,0.00,1000.0,WeatherDisplay:10.37,2013-09-08 14:34:00,
2013-09-08 10:39:00,80.4,68.0,30.00,NNE,22,5.8,5.8,66,0.00,CLR,,0.00,900.0,WeatherDisplay:10.37,2013-09-08 14:39:00,
2013-09-08 10:44:00,80.2,67.8,30.00,NNW,338,4.6,4.6,66,0.00,CLR,,0.00,900.0,WeatherDisplay:10.37,2013-09-08 14:44:00,
2013-09-08 10:49:00,81.1,68.7,30.00,WNW,292,2.4,2.4,66,0.00,CLR,,0.00,1000.0,WeatherDisplay:10.37,2013-09-08 14:49:00,
2013-09-08 10:54:00,81.3,68.4,30.00,NNE,22,2.3,2.4,65,0.00,CLR,,0.00,1000.0,WeatherDisplay:10.37,2013-09-08 14:54:00,
2013-09-08 10:59:00,81.3,68.4,30.00,ENE,68,3.5,3.5,65,0.00,CLR,,0.00,1000.0,WeatherDisplay:10.37,2013-09-08 14:59:00,
2013-09-08 11:04:00,81.3,68.0,30.00,NNE,22,3.5,3.5,64,0.00,CLR,,0.00,1100.0,WeatherDisplay:10.37,2013-09-08 15:04:00,
2013-09-08 11:09:00,82.4,68.5,30.00,NNW,338,2.6,2.6,63,0.00,CLR,,0.00,1200.0,WeatherDisplay:10.37,2013-09-08 15:09:00,
2013-09-08 11:14:00,83.3,68.9,30.00,NNE,22,4.9,4.9,62,0.00,CLR,,0.00,1500.0,WeatherDisplay:10.37,2013-09-08 15:14:00,
2013-09-08 11:19:00,84.2,69.3,30.00,ENE,68,4.6,4.6,61,0.00,CLR,,0.00,1500.0,WeatherDisplay:10.37,2013-09-08 15:19:00,
2013-09-08 11:24:00,84.9,68.5,30.00,NNW,338,5.8,5.8,58,0.00,CLR,,0.00,1200.0,WeatherDisplay:10.37,2013-09-08 15:24:00,
2013-09-08 11:29:00,85.3,67.3,30.00,ENE,68,5.8,5.8,55,0.00,CLR,,0.00,1600.0,WeatherDisplay:10.37,2013-09-08 15:29:00,
2013-09-08 11:34:00,85.3,67.8,30.00,South,180,4.6,4.6,56,0.00,CLR,,0.00,1600.0,WeatherDisplay:10.37,2013-09-08 15:34:00,
2013-09-08 11:39:00,86.7,69.1,30.00,East,90,5.8,5.8,56,0.00,CLR,,0.00,1600.0,WeatherDisplay:10.37,2013-09-08 15:39:00,
2013-09-08 11:44:00,86.2,68.1,30.00,NNW,338,6.9,6.9,55,0.00,CLR,,0.00,1600.0,WeatherDisplay:10.37,2013-09-08 15:44:00,
2013-09-08 11:49:00,87.6,70.0,30.00,ESE,112,3.5,3.5,56,0.00,CLR,,0.00,1600.0,WeatherDisplay:10.37,2013-09-08 15:49:00,
2013-09-08 11:54:00,87.3,68.6,30.00,WNW,292,5.8,5.8,54,0.00,CLR,,0.00,1200.0,WeatherDisplay:10.37,2013-09-08 15:54:00,
2013-09-08 11:59:00,87.6,68.4,30.00,NNE,22,4.6,4.6,53,0.00,CLR,,0.00,1200.0,WeatherDisplay:10.37,2013-09-08 15:59:00,
2013-09-08 12:04:00,87.6,67.8,30.00,NNW,338,5.8,5.8,52,0.00,CLR,,0.00,1600.0,WeatherDisplay:10.37,2013-09-08 16:04:00,
2013-09-08 12:09:00,87.8,67.4,30.00,ESE,112,3.5,3.5,51,0.00,CLR,,0.00,1600.0,WeatherDisplay:10.37,2013-09-08 16:09:00,
2013-09-08 12:14:00,88.5,67.5,30.00,NNW,338,3.6,3.6,50,0.00,CLR,,0.00,1600.0,WeatherDisplay:10.37,2013-09-08 16:14:00,
2013-09-08 12:19:00,86.9,66.0,30.00,ENE,68,4.6,4.6,50,0.00,CLR,,0.00,1400.0,WeatherDisplay:10.37,2013-09-08 16:19:00,
2013-09-08 12:24:00,89.1,68.0,30.03,NNE,22,3.8,3.8,50,0.00,CLR,,0.00,1400.0,WeatherDisplay:10.37,2013-09-08 16:24:00,
2013-09-08 12:29:00,89.6,67.9,30.03,West,270,2.4,2.4,49,0.00,CLR,,0.00,1400.0,WeatherDisplay:10.37,2013-09-08 16:29:00,
2013-09-08 12:34:00,86.5,65.7,30.03,NNW,338,5.8,5.8,50,0.00,CLR,,0.00,900.0,WeatherDisplay:10.37,2013-09-08 16:34:00,
2013-09-08 12:39:00,87.1,67.3,30.03,East,90,3.5,3.5,52,0.00,CLR,,0.00,1000.0,WeatherDisplay:10.37,2013-09-08 16:39:00,
2013-09-08 12:44:00,87.1,66.2,30.03,ENE,68,4.6,4.6,50,0.00,CLR,,0.00,1100.0,WeatherDisplay:10.37,2013-09-08 16:44:00,
2013-09-08 12:49:00,88.3,67.9,30.03,ENE,68,4.9,4.9,51,0.00,CLR,,0.00,1100.0,WeatherDisplay:10.37,2013-09-08 16:49:00,
2013-09-08 12:54:00,89.6,67.9,30.03,NNW,338,2.4,2.4,49,0.00,CLR,,0.00,400.0,WeatherDisplay:10.37,2013-09-08 16:54:00,
2013-09-08 12:59:00,88.7,66.5,30.03,ESE,112,6.9,6.9,48,0.00,CLR,,0.00,1300.0,WeatherDisplay:10.37,2013-09-08 16:59:00,
2013-09-08 13:04:00,90.3,68.0,30.03,NNW,338,3.5,3.5,48,0.00,CLR,,0.00,1300.0,WeatherDisplay:10.37,2013-09-08 17:04:00,
2013-09-08 13:09:00,87.8,65.7,30.03,NNW,338,3.5,3.5,48,0.00,CLR,,0.00,800.0,WeatherDisplay:10.37,2013-09-08 17:09:00,
2013-09-08 13:14:00,85.6,65.4,30.03,ENE,68,6.9,6.9,51,0.00,CLR,,0.00,1400.0,WeatherDisplay:10.37,2013-09-08 17:14:00,
2013-09-08 13:19:00,86.5,67.4,30.03,SSW,202,5.8,5.8,53,0.00,CLR,,0.00,1400.0,WeatherDisplay:10.37,2013-09-08 17:19:00,
2013-09-08 13:24:00,87.3,66.4,30.03,NNW,338,6.0,6.0,50,0.00,CLR,,0.00,1400.0,WeatherDisplay:10.37,2013-09-08 17:24:00,
2013-09-08 13:29:00,89.8,69.2,30.03,ESE,112,3.5,3.5,51,0.00,CLR,,0.00,1400.0,WeatherDisplay:10.37,2013-09-08 17:29:00,
2013-09-08 13:34:00,87.3,66.4,30.03,ENE,68,4.6,4.6,50,0.00,CLR,,0.00,500.0,WeatherDisplay:10.37,2013-09-08 17:34:00,
2013-09-08 13:39:00,85.1,66.0,30.03,NNE,22,6.9,6.9,53,0.00,CLR,,0.00,600.0,WeatherDisplay:10.37,2013-09-08 17:39:00,
2013-09-08 13:44:00,85.1,66.6,30.03,SE,135,4.6,4.6,54,0.00,CLR,,0.00,1200.0,WeatherDisplay:10.37,2013-09-08 17:44:00,
2013-09-08 13:49:00,85.6,67.1,30.03,NNW,338,5.8,5.8,54,0.00,CLR,,0.00,1100.0,WeatherDisplay:10.37,2013-09-08 17:49:00,
2013-09-08 13:54:00,84.6,66.6,30.03,NNE,22,6.0,6.0,55,0.00,CLR,,0.00,700.0,WeatherDisplay:10.37,2013-09-08 17:54:00,
2013-09-08 13:59:00,83.1,66.3,30.03,NNE,22,6.9,6.9,57,0.00,CLR,,0.00,700.0,WeatherDisplay:10.37,2013-09-08 17:59:00,
2013-09-08 14:04:00,82.2,66.0,30.03,NE,45,4.6,4.6,58,0.00,CLR,,0.00,800.0,WeatherDisplay:10.37,2013-09-08 18:04:00,
2013-09-08 14:09:00,82.4,66.6,30.03,South,180,3.8,3.8,59,0.00,CLR,,0.00,1000.0,WeatherDisplay:10.37,2013-09-08 18:09:00,
2013-09-08 14:14:00,82.6,66.3,30.03,NNE,22,4.6,4.6,58,0.00,CLR,,0.00,1000.0,WeatherDisplay:10.37,2013-09-08 18:14:00,
2013-09-08 14:19:00,83.5,67.6,30.03,SSW,202,2.4,2.4,59,0.00,CLR,,0.00,1200.0,WeatherDisplay:10.37,2013-09-08 18:19:00,
2013-09-08 14:24:00,84.0,67.7,30.03,ENE,68,2.9,2.9,58,0.00,CLR,,0.00,1300.0,WeatherDisplay:10.37,2013-09-08 18:24:00,
2013-09-08 14:29:00,84.2,67.8,30.03,ENE,68,7.1,7.1,58,0.00,CLR,,0.00,1300.0,WeatherDisplay:10.37,2013-09-08 18:29:00,
2013-09-08 14:34:00,85.8,68.8,30.03,ENE,68,5.8,5.8,57,0.00,CLR,,0.00,1100.0,WeatherDisplay:10.37,2013-09-08 18:34:00,
2013-09-08 14:39:00,87.1,69.0,30.03,East,90,2.3,2.3,55,0.00,CLR,,0.00,1600.0,WeatherDisplay:10.37,2013-09-08 18:39:00,
2013-09-08 14:44:00,89.1,69.1,30.03,SSE,158,2.6,2.6,52,0.00,CLR,,0.00,1600.0,WeatherDisplay:10.37,2013-09-08 18:44:00,
2013-09-08 14:49:00,89.2,68.2,30.03,NNW,338,4.0,4.0,50,0.00,CLR,,0.00,1500.0,WeatherDisplay:10.37,2013-09-08 18:49:00,
2013-09-08 14:54:00,87.8,66.8,30.03,NNE,22,5.8,5.8,50,0.00,CLR,,0.00,1000.0,WeatherDisplay:10.37,2013-09-08 18:54:00,
2013-09-08 14:59:00,89.2,67.6,30.03,NNE,22,4.6,4.6,49,0.00,CLR,,0.00,1600.0,WeatherDisplay:10.37,2013-09-08 18:59:00,
2013-09-08 15:04:00,90.5,67.5,30.03,ESE,112,4.6,4.6,47,0.00,CLR,,0.00,1600.0,WeatherDisplay:10.37,2013-09-08 19:04:00,
2013-09-08 15:09:00,90.5,66.9,30.03,SSW,202,5.8,5.8,46,0.00,CLR,,0.00,1600.0,WeatherDisplay:10.37,2013-09-08 19:09:00,
2013-09-08 15:14:00,89.6,66.1,30.03,ENE,68,2.3,2.6,46,0.00,CLR,,0.00,800.0,WeatherDisplay:10.37,2013-09-08 19:14:00,
2013-09-08 15:19:00,89.6,66.7,30.03,NE,45,3.5,3.5,47,0.00,CLR,,0.00,1500.0,WeatherDisplay:10.37,2013-09-08 19:19:00,
2013-09-08 15:24:00,89.8,66.9,30.03,NNW,338,4.6,4.6,47,0.00,CLR,,0.00,700.0,WeatherDisplay:10.37,2013-09-08 19:24:00,
2013-09-08 15:29:00,87.1,65.0,30.03,NNE,22,2.3,2.3,48,0.00,CLR,,0.00,600.0,WeatherDisplay:10.37,2013-09-08 19:29:00,
2013-09-08 15:34:00,86.7,65.3,30.03,NNW,338,3.5,3.5,49,0.00,CLR,,0.00,700.0,WeatherDisplay:10.37,2013-09-08 19:34:00,
2013-09-08 15:39:00,86.5,65.1,30.03,ENE,68,2.3,2.3,49,0.00,CLR,,0.00,700.0,WeatherDisplay:10.37,2013-09-08 19:39:00,
2013-09-08 15:45:00,87.1,66.2,30.03,NNW,338,2.3,2.3,50,0.00,CLR,,0.00,1200.0,WeatherDisplay:10.37,2013-09-08 19:45:00,
2013-09-08 15:50:00,86.9,65.4,30.03,West,270,5.8,5.8,49,0.00,CLR,,0.00,1300.0,WeatherDisplay:10.37,2013-09-08 19:50:00,
2013-09-08 15:55:00,88.9,67.2,30.00,ENE,68,2.4,2.4,49,0.00,CLR,,0.00,1300.0,WeatherDisplay:10.37,2013-09-08 19:55:00,
2013-09-08 16:00:00,89.8,66.9,30.00,NNE,22,3.5,3.5,47,0.00,CLR,,0.00,1300.0,WeatherDisplay:10.37,2013-09-08 20:00:00,
2013-09-08 16:05:00,90.0,66.4,30.00,ESE,112,2.3,2.3,46,0.00,CLR,,0.00,1100.0,WeatherDisplay:10.37,2013-09-08 20:05:00,
2013-09-08 16:10:00,88.3,65.6,30.03,NNW,338,3.5,3.5,47,0.00,FEW,,0.00,600.0,WeatherDisplay:10.37,2013-09-08 20:10:00,
2013-09-08 16:15:00,86.4,63.8,30.03,ENE,68,4.6,4.6,47,0.00,CLR,,0.00,600.0,WeatherDisplay:10.37,2013-09-08 20:15:00,
2013-09-08 16:20:00,86.4,64.4,30.03,NNW,338,4.9,4.9,48,0.00,SCT,,0.00,400.0,WeatherDisplay:10.37,2013-09-08 20:20:00,
2013-09-08 16:25:00,85.1,63.8,30.03,NE,42,1.0,5.0,49,0.00,BKN,,0.00,300.0,WeatherDisplay:10.37,2013-09-08 20:25:00,
2013-09-08 16:30:00,84.4,64.8,30.03,NNE,22,4.6,4.6,52,0.00,SCT,,0.00,500.0,WeatherDisplay:10.37,2013-09-08 20:30:00,
2013-09-08 16:35:00,85.1,65.5,30.03,North,7,2.0,5.0,52,0.00,CLR,,0.00,700.0,WeatherDisplay:10.37,2013-09-08 20:35:00,
2013-09-08 16:40:00,84.0,64.5,30.03,North,0,5.8,5.8,52,0.00,BKN,,0.00,400.0,WeatherDisplay:10.37,2013-09-08 20:40:00,
2013-09-08 16:45:00,83.8,65.4,30.03,NE,45,2.3,2.3,54,0.00,SCT,,0.00,500.0,WeatherDisplay:10.37,2013-09-08 20:45:00,
2013-09-08 16:50:00,84.0,65.6,30.03,North,0,0.0,4.0,54,0.00,CLR,,0.00,700.0,WeatherDisplay:10.37,2013-09-08 20:50:00,
2013-09-08 16:55:00,84.9,66.4,30.03,ESE,112,3.5,3.5,54,0.00,CLR,,0.00,700.0,WeatherDisplay:10.37,2013-09-08 20:55:00,
2013-09-08 17:00:00,85.8,66.7,30.03,NNE,12,1.0,5.0,53,0.00,SCT,,0.00,600.0,WeatherDisplay:10.37,2013-09-08 21:00:00,
2013-09-08 17:05:00,84.8,65.3,30.03,NNE,15,2.0,7.0,52,0.00,SCT,,0.00,500.0,WeatherDisplay:10.37,2013-09-08 21:05:00,
2013-09-08 17:10:00,84.5,65.5,30.03,ENE,71,1.0,5.0,53,0.00,BKN,,0.00,300.0,WeatherDisplay:10.37,2013-09-08 21:10:00,
2013-09-08 17:15:00,84.4,65.4,30.03,ENE,76,2.0,3.0,53,0.00,BKN,,0.00,400.0,WeatherDisplay:10.37,2013-09-08 21:15:00,
2013-09-08 17:20:00,84.0,65.0,30.03,North,5,2.0,6.0,53,0.00,SCT,,0.00,500.0,WeatherDisplay:10.37,2013-09-08 21:20:00,
2013-09-08 17:25:00,84.6,65.0,30.00,NNE,22,4.6,4.6,52,0.00,SCT,,0.00,600.0,WeatherDisplay:10.37,2013-09-08 21:25:00,
2013-09-08 17:30:00,85.5,65.8,30.00,NE,45,4.6,4.6,52,0.00,SCT,,0.00,500.0,WeatherDisplay:10.37,2013-09-08 21:30:00,
2013-09-08 17:35:00,85.9,66.3,30.00,North,7,2.0,5.0,52,0.00,SCT,,0.00,500.0,WeatherDisplay:10.37,2013-09-08 21:35:00,
2013-09-08 17:40:00,85.1,65.5,30.03,ENE,68,5.8,5.8,52,0.00,SCT,,0.00,500.0,WeatherDisplay:10.37,2013-09-08 21:40:00,
2013-09-08 17:45:00,84.6,65.0,30.03,NNE,18,2.0,5.0,52,0.00,BKN,,0.00,400.0,WeatherDisplay:10.37,2013-09-08 21:45:00,
2013-09-08 17:50:00,84.5,65.5,30.03,NNE,22,1.0,4.0,53,0.00,BKN,,0.00,400.0,WeatherDisplay:10.37,2013-09-08 21:50:00,
2013-09-08 17:55:00,84.6,65.0,30.00,NNE,20,1.0,4.0,52,0.00,BKN,,0.00,400.0,WeatherDisplay:10.37,2013-09-08 21:55:00,
2013-09-08 18:00:00,84.5,64.9,30.00,NNE,28,2.0,5.0,52,0.00,BKN,,0.00,300.0,WeatherDisplay:10.37,2013-09-08 22:00:00,
2013-09-08 18:05:00,83.3,64.4,30.00,NNE,22,4.6,4.6,53,0.00,BKN,,0.00,300.0,WeatherDisplay:10.37,2013-09-08 22:05:00,
2013-09-08 18:10:00,82.0,64.3,30.03,ESE,112,5.8,5.8,55,0.00,BKN,,0.00,300.0,WeatherDisplay:10.37,2013-09-08 22:10:00,
2013-09-08 18:15:00,81.5,64.3,30.03,NE,37,2.0,6.0,56,0.00,BKN,,0.00,300.0,WeatherDisplay:10.37,2013-09-08 22:15:00,
2013-09-08 18:20:00,81.3,64.6,30.03,NNW,338,4.9,4.9,57,0.00,BKN,,0.00,300.0,WeatherDisplay:10.37,2013-09-08 22:20:00,
2013-09-08 18:25:00,80.4,64.8,30.00,ESE,112,5.8,5.8,59,0.00,BKN,,0.00,200.0,WeatherDisplay:10.37,2013-09-08 22:25:00,
2013-09-08 18:30:00,79.7,65.5,30.00,ENE,68,4.6,4.6,62,0.00,BKN,,0.00,200.0,WeatherDisplay:10.37,2013-09-08 22:30:00,
2013-09-08 18:35:00,79.9,65.7,30.00,SSE,158,3.5,3.5,62,0.00,BKN,,0.00,200.0,WeatherDisplay:10.37,2013-09-08 22:35:00,
2013-09-08 18:40:00,79.2,65.5,30.00,ENE,68,3.5,3.5,63,0.00,BKN,,0.00,100.0,WeatherDisplay:10.37,2013-09-08 22:40:00,
2013-09-08 18:45:00,79.0,65.3,30.00,ENE,66,1.0,5.0,63,0.00,BKN,,0.00,100.0,WeatherDisplay:10.37,2013-09-08 22:45:00,
2013-09-08 18:50:00,78.6,65.4,30.00,NNE,22,5.8,5.8,64,0.00,BKN,,0.00,100.0,WeatherDisplay:10.37,2013-09-08 22:50:00,
2013-09-08 18:55:00,78.1,65.4,30.03,ENE,67,1.0,4.0,65,0.00,BKN,,0.00,100.0,WeatherDisplay:10.37,2013-09-08 22:55:00,
2013-09-08 19:00:00,77.0,65.2,30.03,ENE,68,3.6,3.6,67,0.00,BKN,,0.00,0.0,WeatherDisplay:10.37,2013-09-08 23:00:00,
2013-09-08 19:05:00,76.5,65.2,30.03,ENE,71,2.0,5.0,68,0.00,CLR,,0.00,0.0,WeatherDisplay:10.37,2013-09-08 23:05:00,
2013-09-08 19:10:00,76.1,65.2,30.03,ENE,67,3.0,6.0,69,0.00,CLR,,0.00,0.0,WeatherDisplay:10.37,2013-09-08 23:10:00,
2013-09-08 19:15:00,75.6,65.1,30.03,ESE,112,4.6,4.6,70,0.00,CLR,,0.00,0.0,WeatherDisplay:10.37,2013-09-08 23:15:00,
2013-09-08 19:20:00,75.2,65.6,30.03,ENE,68,3.5,3.5,72,0.00,CLR,,0.00,0.0,WeatherDisplay:10.37,2013-09-08 23:20:00,
2013-09-08 19:25:00,74.7,65.4,30.03,NE,45,3.5,3.5,73,0.00,CLR,,0.00,0.0,WeatherDisplay:10.37,2013-09-08 23:25:00,
2013-09-08 19:30:00,74.3,65.1,30.03,ENE,68,4.6,4.6,73,0.00,CLR,,0.00,0.0,WeatherDisplay:10.37,2013-09-08 23:30:00,
2013-09-08 19:35:00,73.9,64.7,30.03,ENE,63,2.0,6.0,73,0.00,CLR,,0.00,0.0,WeatherDisplay:10.37,2013-09-08 23:35:00,
2013-09-08 19:40:00,73.8,65.0,30.03,ESE,112,4.6,4.6,74,0.00,CLR,,0.00,0.0,WeatherDisplay:10.37,2013-09-08 23:40:00,
2013-09-08 19:45:00,73.0,65.0,30.03,NNW,338,3.1,3.1,76,0.00,CLR,,0.00,0.0,WeatherDisplay:10.37,2013-09-08 23:45:00,
2013-09-08 19:50:00,72.9,64.8,30.03,ENE,76,2.0,5.0,76,0.00,CLR,,0.00,0.0,WeatherDisplay:10.37,2013-09-08 23:50:00,
2013-09-08 19:55:00,72.5,64.5,30.03,NE,44,2.0,4.0,76,0.00,CLR,,0.00,0.0,WeatherDisplay:10.37,2013-09-08 23:55:00,
2013-09-08 20:00:00,72.1,64.9,30.03,NE,51,2.0,5.0,78,0.00,CLR,,0.00,0.0,WeatherDisplay:10.37,2013-09-09 00:00:00,
2013-09-08 20:05:00,71.8,64.6,30.03,ENE,74,3.0,5.0,78,0.00,CLR,,0.00,0.0,WeatherDisplay:10.37,2013-09-09 00:05:00,
2013-09-08 20:10:00,71.5,64.3,30.03,East,89,1.0,5.0,78,0.00,CLR,,0.00,0.0,WeatherDisplay:10.37,2013-09-09 00:10:00,
2013-09-08 20:15:00,71.2,64.4,30.03,ENE,75,2.0,5.0,79,0.00,CLR,,0.00,0.0,WeatherDisplay:10.37,2013-09-09 00:15:00,
2013-09-08 20:20:00,71.1,64.6,30.03,NNE,22,4.5,4.5,80,0.00,CLR,,0.00,0.0,WeatherDisplay:10.37,2013-09-09 00:20:00,
2013-09-08 20:25:00,70.7,64.2,30.03,ENE,68,4.6,4.6,80,0.00,CLR,,0.00,0.0,WeatherDisplay:10.37,2013-09-09 00:25:00,
2013-09-08 20:30:00,70.5,64.4,30.03,ESE,112,4.6,4.6,81,0.00,CLR,,0.00,0.0,WeatherDisplay:10.37,2013-09-09 00:30:00,
2013-09-08 20:35:00,70.5,64.0,30.03,ENE,74,1.0,6.0,80,0.00,CLR,,0.00,0.0,WeatherDisplay:10.37,2013-09-09 00:35:00,
2013-09-08 20:40:00,70.2,64.1,30.03,ENE,68,4.6,4.6,81,0.00,CLR,,0.00,0.0,WeatherDisplay:10.37,2013-09-09 00:40:00,
2013-09-08 20:45:00,70.2,64.1,30.03,East,80,2.0,6.0,81,0.00,CLR,,0.00,0.0,WeatherDisplay:10.37,2013-09-09 00:45:00,
2013-09-08 20:50:00,70.0,63.9,30.03,ENE,65,2.0,5.0,81,0.00,CLR,,0.00,0.0,WeatherDisplay:10.37,2013-09-09 00:50:00,
2013-09-08 20:55:00,69.8,63.7,30.03,East,90,4.3,4.3,81,0.00,CLR,,0.00,0.0,WeatherDisplay:10.37,2013-09-09 00:55:00,
2013-09-08 21:00:00,69.6,63.5,30.03,ENE,74,2.0,6.0,81,0.00,CLR,,0.00,0.0,WeatherDisplay:10.37,2013-09-09 01:00:00,
2013-09-08 21:05:00,69.6,63.9,30.03,ENE,68,6.9,6.9,82,0.00,CLR,,0.00,0.0,WeatherDisplay:10.37,2013-09-09 01:05:00,
2013-09-08 21:10:00,69.4,63.7,30.06,ENE,73,2.0,6.0,82,0.00,CLR,,0.00,0.0,WeatherDisplay:10.37,2013-09-09 01:10:00,
2013-09-08 21:15:00,69.3,63.6,30.06,ENE,76,3.0,6.0,82,0.00,CLR,,0.00,0.0,WeatherDisplay:10.37,2013-09-09 01:15:00,
2013-09-08 21:20:00,69.1,63.4,30.06,ENE,68,3.5,3.5,82,0.00,CLR,,0.00,0.0,WeatherDisplay:10.37,2013-09-09 01:20:00,
2013-09-08 21:25:00,69.1,63.4,30.06,NNE,22,3.5,3.5,82,0.00,CLR,,0.00,0.0,WeatherDisplay:10.37,2013-09-09 01:25:00,
2013-09-08 21:30:00,68.9,63.2,30.06,ENE,71,2.0,5.0,82,0.00,CLR,,0.00,0.0,WeatherDisplay:10.37,2013-09-09 01:30:00,
2013-09-08 21:35:00,68.9,63.5,30.06,ENE,68,5.8,5.8,83,0.00,CLR,,0.00,0.0,WeatherDisplay:10.37,2013-09-09 01:35:00,
2013-09-08 21:40:00,68.7,63.3,30.06,ENE,74,2.0,6.0,83,0.00,CLR,,0.00,0.0,WeatherDisplay:10.37,2013-09-09 01:40:00,
2013-09-08 21:45:00,68.5,63.5,30.06,ENE,68,3.8,3.8,84,0.00,CLR,,0.00,0.0,WeatherDisplay:10.37,2013-09-09 01:45:00,
2013-09-08 21:50:00,68.5,63.5,30.06,NNE,22,4.6,4.6,84,0.00,CLR,,0.00,0.0,WeatherDisplay:10.37,2013-09-09 01:50:00,
2013-09-08 21:55:00,68.5,63.5,30.06,ENE,68,3.0,6.0,84,0.00,CLR,,0.00,0.0,WeatherDisplay:10.37,2013-09-09 01:55:00,
2013-09-08 22:00:00,68.4,63.7,30.06,ENE,68,6.2,6.2,85,0.00,CLR,,0.00,0.0,WeatherDisplay:10.37,2013-09-09 02:00:00,
2013-09-08 22:05:00,68.3,63.6,30.06,ENE,68,2.0,7.0,85,0.00,CLR,,0.00,0.0,WeatherDisplay:10.37,2013-09-09 02:05:00,
2013-09-08 22:10:00,68.2,63.8,30.03,ENE,71,5.0,7.0,86,0.00,CLR,,0.00,0.0,WeatherDisplay:10.37,2013-09-09 02:10:00,
2013-09-08 22:15:00,68.0,63.7,30.03,NNE,22,6.9,6.9,86,0.00,CLR,,0.00,0.0,WeatherDisplay:10.37,2013-09-09 02:15:00,
2013-09-08 22:20:00,67.8,63.5,30.03,ENE,69,3.0,6.0,86,0.00,CLR,,0.00,0.0,WeatherDisplay:10.37,2013-09-09 02:20:00,
2013-09-08 22:25:00,67.8,63.5,30.06,ESE,112,9.7,9.7,86,0.00,CLR,,0.00,0.0,WeatherDisplay:10.37,2013-09-09 02:25:00,
2013-09-08 22:30:00,67.8,63.1,30.06,ENE,68,5.8,5.8,85,0.00,CLR,,0.00,0.0,WeatherDisplay:10.37,2013-09-09 02:30:00,
2013-09-08 22:35:00,67.6,63.0,30.06,NNE,22,7.4,7.4,85,0.00,CLR,,0.00,0.0,WeatherDisplay:10.37,2013-09-09 02:35:00,
2013-09-08 22:40:00,67.6,63.0,30.06,ENE,77,5.0,7.0,85,0.00,CLR,,0.00,0.0,WeatherDisplay:10.37,2013-09-09 02:40:00,
2013-09-08 22:45:00,67.5,62.8,30.06,East,85,3.0,6.0,85,0.00,CLR,,0.00,0.0,WeatherDisplay:10.37,2013-09-09 02:45:00,
2013-09-08 22:50:00,67.3,62.6,30.06,ENE,78,3.0,7.0,85,0.00,CLR,,0.00,0.0,WeatherDisplay:10.37,2013-09-09 02:50:00,
2013-09-08 22:55:00,67.1,62.8,30.03,ENE,74,3.0,6.0,86,0.00,CLR,,0.00,0.0,WeatherDisplay:10.37,2013-09-09 02:55:00,
2013-09-08 23:00:00,67.1,62.8,30.03,NE,45,6.4,6.4,86,0.00,CLR,,0.00,0.0,WeatherDisplay:10.37,2013-09-09 03:00:00,
2013-09-08 23:05:00,66.9,62.6,30.03,ENE,69,6.0,7.0,86,0.00,CLR,,0.00,0.0,WeatherDisplay:10.37,2013-09-09 03:05:00,
2013-09-08 23:10:00,66.7,62.7,30.06,East,83,3.0,6.0,87,0.00,CLR,,0.00,0.0,WeatherDisplay:10.37,2013-09-09 03:10:00,
2013-09-08 23:15:00,66.6,62.6,30.06,East,84,2.0,5.0,87,0.00,CLR,,0.00,0.0,WeatherDisplay:10.37,2013-09-09 03:15:00,
2013-09-08 23:20:00,66.2,62.2,30.06,ENE,68,2.4,2.4,87,0.00,CLR,,0.00,0.0,WeatherDisplay:10.37,2013-09-09 03:20:00,
2013-09-08 23:25:00,66.2,62.9,30.06,ESE,112,3.5,3.5,89,0.00,CLR,,0.00,0.0,WeatherDisplay:10.37,2013-09-09 03:25:00,
2013-09-08 23:30:00,66.0,62.7,30.06,ENE,76,3.0,6.0,89,0.00,CLR,,0.00,0.0,WeatherDisplay:10.37,2013-09-09 03:30:00,
2013-09-08 23:35:00,66.0,62.7,30.06,ENE,76,3.0,6.0,89,0.00,CLR,,0.00,0.0,WeatherDisplay:10.37,2013-09-09 03:35:00,
2013-09-08 23:40:00,65.8,62.8,30.06,NE,45,3.5,3.5,90,0.00,CLR,,0.00,0.0,WeatherDisplay:10.37,2013-09-09 03:40:00,
2013-09-08 23:45:00,65.8,62.8,30.06,East,83,3.0,6.0,90,0.00,CLR,,0.00,0.0,WeatherDisplay:10.37,2013-09-09 03:45:00,
2013-09-08 23:50:00,65.7,62.6,30.06,East,80,3.0,7.0,90,0.00,CLR,,0.00,0.0,WeatherDisplay:10.37,2013-09-09 03:50:00,
2013-09-08 23:55:00,65.7,62.6,30.06,ENE,68,5.8,5.8,90,0.00,CLR,,0.00,0.0,WeatherDisplay:10.37,2013-09-09 03:55:00,